{"data":{"norad_id":53003,"epoch":"2026-09-19T16:24:12.398112Z","epoch_age_seconds":139381,"freshness":"FRESH","line1":"1 53003U 22076T   26262.68347683  .00000315  00000+0  20456-4 0  9990","line2":"2 53003  53.1604 287.1937 0001392  85.3558 274.7603 15.34389628232340","mean_motion":15.34389628,"eccentricity":0.0001392,"inclination_deg":53.1604,"raan_deg":287.1937,"arg_perigee_deg":85.3558,"mean_anomaly_deg":274.7603,"bstar":2.0456e-5,"rev_number":23234,"period_min":93.848392463195,"perigee_km":461.78181889787,"apogee_km":463.68631740325,"semimajor_km":6840.8710681506,"source":"CELESTRAK","updated_at":"2026-09-20T09:00:40.142002Z"}}